Time,TemperatureF,DewpointF,PressureIn,WindDirection,WindDirectionDegrees,WindSpeedMPH,WindSpeedGustMPH,Humidity,HourlyPrecipIn,Conditions,Clouds,dailyrainin,SoftwareType,DateUTC
2013-07-10 00:09:00,70.9,70.0,29.98,ENE,57,0.0,0.0,98,0.00,,,0.16,weatherlink.com 1.10,2013-07-10 04:09:00,
2013-07-10 00:24:00,70.9,70.0,29.97,ENE,72,0.0,0.0,98,0.00,,,0.16,weatherlink.com 1.10,2013-07-10 04:24:00,
2013-07-10 00:39:00,70.7,70.0,29.96,East,82,0.0,0.0,98,0.00,,,0.16,weatherlink.com 1.10,2013-07-10 04:39:00,
2013-07-10 00:54:00,70.6,70.0,29.96,ENE,63,0.0,0.0,98,0.00,,,0.16,weatherlink.com 1.10,2013-07-10 04:54:00,
2013-07-10 01:09:00,70.5,70.0,29.95,ENE,65,0.0,0.0,98,0.00,,,0.16,weatherlink.com 1.10,2013-07-10 05:09:00,
2013-07-10 01:24:00,70.2,70.0,29.95,ENE,67,0.0,0.0,98,0.00,,,0.16,weatherlink.com 1.10,2013-07-10 05:24:00,
2013-07-10 01:39:00,69.9,69.0,29.95,ENE,67,0.0,0.0,98,0.00,,,0.16,weatherlink.com 1.10,2013-07-10 05:39:00,
2013-07-10 01:54:00,69.7,69.0,29.94,ENE,67,0.0,0.0,98,0.00,,,0.16,weatherlink.com 1.10,2013-07-10 05:54:00,
2013-07-10 02:09:00,69.7,69.0,29.94,ENE,72,0.0,0.0,98,0.00,,,0.16,weatherlink.com 1.10,2013-07-10 06:09:00,
2013-07-10 02:24:00,69.7,69.0,29.93,East,83,0.0,0.0,98,0.00,,,0.16,weatherlink.com 1.10,2013-07-10 06:24:00,
2013-07-10 02:39:00,69.8,69.0,29.93,East,82,0.0,0.0,98,0.00,,,0.16,weatherlink.com 1.10,2013-07-10 06:39:00,
2013-07-10 02:54:00,69.9,69.0,29.93,East,82,0.0,0.0,98,0.00,,,0.16,weatherlink.com 1.10,2013-07-10 06:54:00,
2013-07-10 03:09:00,69.7,69.0,29.93,East,79,0.0,0.0,98,0.00,,,0.16,weatherlink.com 1.10,2013-07-10 07:09:00,
2013-07-10 03:24:00,69.9,69.0,29.92,ENE,78,1.0,1.0,98,0.00,,,0.16,weatherlink.com 1.10,2013-07-10 07:24:00,
2013-07-10 03:39:00,70.1,70.0,29.91,ENE,78,0.0,2.0,98,0.00,,,0.16,weatherlink.com 1.10,2013-07-10 07:39:00,
2013-07-10 03:54:00,70.2,70.0,29.92,ENE,78,0.0,2.0,98,0.00,,,0.16,weatherlink.com 1.10,2013-07-10 07:54:00,
2013-07-10 04:09:00,70.3,70.0,29.92,East,79,0.0,2.0,98,0.00,,,0.16,weatherlink.com 1.10,2013-07-10 08:09:00,
2013-07-10 04:24:00,70.4,70.0,29.92,East,79,0.0,1.0,98,0.00,,,0.16,weatherlink.com 1.10,2013-07-10 08:24:00,
2013-07-10 04:39:00,70.5,70.0,29.92,East,79,0.0,0.0,99,0.00,,,0.16,weatherlink.com 1.10,2013-07-10 08:39:00,
2013-07-10 04:54:00,70.6,70.0,29.92,ENE,78,0.0,1.0,99,0.00,,,0.16,weatherlink.com 1.10,2013-07-10 08:54:00,
2013-07-10 05:09:00,70.7,70.0,29.91,ENE,78,0.0,0.0,99,0.00,,,0.16,weatherlink.com 1.10,2013-07-10 09:09:00,
2013-07-10 05:25:00,70.9,71.0,29.91,ENE,78,0.0,0.0,99,0.00,,,0.16,weatherlink.com 1.10,2013-07-10 09:25:00,
2013-07-10 05:40:00,71.0,71.0,29.92,ENE,78,0.0,0.0,99,0.00,,,0.16,weatherlink.com 1.10,2013-07-10 09:40:00,
2013-07-10 05:55:00,71.1,71.0,29.92,ENE,78,0.0,1.0,99,0.00,,,0.16,weatherlink.com 1.10,2013-07-10 09:55:00,
2013-07-10 06:10:00,71.2,71.0,29.91,ENE,78,0.0,1.0,99,0.00,,,0.16,weatherlink.com 1.10,2013-07-10 10:10:00,
2013-07-10 06:25:00,71.3,71.0,29.91,ENE,76,0.0,2.0,99,0.00,,,0.00,weatherlink.com 1.10,2013-07-10 10:25:00,
2013-07-10 06:40:00,71.6,71.0,29.91,ENE,77,0.0,2.0,99,0.00,,,0.00,weatherlink.com 1.10,2013-07-10 10:40:00,
2013-07-10 06:55:00,71.9,72.0,29.91,ENE,77,0.0,1.0,99,0.00,,,0.00,weatherlink.com 1.10,2013-07-10 10:55:00,
2013-07-10 07:10:00,72.2,72.0,29.91,ENE,78,1.0,2.0,99,0.00,,,0.00,weatherlink.com 1.10,2013-07-10 11:10:00,
2013-07-10 07:25:00,72.6,72.0,29.91,East,84,0.0,2.0,99,0.00,,,0.00,weatherlink.com 1.10,2013-07-10 11:25:00,
2013-07-10 07:40:00,73.0,73.0,29.91,East,80,0.0,2.0,99,0.00,,,0.00,weatherlink.com 1.10,2013-07-10 11:40:00,
2013-07-10 07:55:00,73.4,73.0,29.90,East,80,0.0,0.0,99,0.00,,,0.00,weatherlink.com 1.10,2013-07-10 11:55:00,
2013-07-10 08:10:00,73.8,74.0,29.90,East,80,0.0,1.0,99,0.00,,,0.00,weatherlink.com 1.10,2013-07-10 12:10:00,
2013-07-10 08:25:00,74.0,74.0,29.90,ENE,78,0.0,1.0,99,0.00,,,0.00,weatherlink.com 1.10,2013-07-10 12:25:00,
2013-07-10 08:40:00,74.3,74.0,29.90,SSW,200,2.0,3.0,99,0.00,,,0.00,weatherlink.com 1.10,2013-07-10 12:40:00,
2013-07-10 08:55:00,75.0,74.0,29.90,SW,228,2.0,4.0,98,0.00,,,0.00,weatherlink.com 1.10,2013-07-10 12:55:00,
2013-07-10 09:10:00,75.7,75.0,29.90,WSW,252,2.0,6.0,96,0.00,,,0.00,weatherlink.com 1.10,2013-07-10 13:10:00,
2013-07-10 09:25:00,76.0,74.0,29.90,SW,228,2.0,7.0,92,0.00,,,0.00,weatherlink.com 1.10,2013-07-10 13:25:00,
2013-07-10 09:40:00,76.2,74.0,29.90,SW,229,2.0,5.0,92,0.00,,,0.00,weatherlink.com 1.10,2013-07-10 13:40:00,
2013-07-10 09:55:00,76.5,74.0,29.89,SW,234,0.0,4.0,92,0.00,,,0.00,weatherlink.com 1.10,2013-07-10 13:55:00,
2013-07-10 10:10:00,76.7,74.0,29.90,NW,312,0.0,2.0,92,0.00,,,0.00,weatherlink.com 1.10,2013-07-10 14:10:00,
2013-07-10 10:25:00,76.6,74.0,29.90,SW,221,1.0,5.0,91,0.00,,,0.00,weatherlink.com 1.10,2013-07-10 14:25:00,
2013-07-10 10:40:00,76.9,75.0,29.90,SW,232,5.0,5.0,92,0.00,,,0.00,weatherlink.com 1.10,2013-07-10 14:40:00,
2013-07-10 10:55:00,77.4,74.0,29.89,SSW,200,7.0,7.0,90,0.00,,,0.00,weatherlink.com 1.10,2013-07-10 14:55:00,
2013-07-10 11:10:00,78.4,75.0,29.89,SSW,211,0.0,7.0,88,0.00,,,0.00,weatherlink.com 1.10,2013-07-10 15:10:00,
2013-07-10 11:25:00,80.3,76.0,29.89,SSW,207,1.0,5.0,86,0.00,,,0.00,weatherlink.com 1.10,2013-07-10 15:25:00,
2013-07-10 11:40:00,80.5,75.0,29.88,SSW,211,3.0,8.0,82,0.00,,,0.00,weatherlink.com 1.10,2013-07-10 15:40:00,
2013-07-10 11:55:00,80.1,74.0,29.88,SSW,201,5.0,17.0,82,0.00,,,0.00,weatherlink.com 1.10,2013-07-10 15:55:00,
2013-07-10 12:10:00,79.2,75.0,29.88,SSW,198,4.0,8.0,86,0.00,,,0.00,weatherlink.com 1.10,2013-07-10 16:10:00,
2013-07-10 12:25:00,77.7,74.0,29.88,SW,234,3.0,7.0,87,0.00,,,0.00,weatherlink.com 1.10,2013-07-10 16:25:00,
2013-07-10 12:40:00,77.8,74.0,29.88,WSW,257,5.0,10.0,88,0.00,,,0.00,weatherlink.com 1.10,2013-07-10 16:40:00,
2013-07-10 12:55:00,78.7,75.0,29.88,SW,236,7.0,10.0,87,0.00,,,0.00,weatherlink.com 1.10,2013-07-10 16:55:00,
2013-07-10 13:10:00,79.4,74.0,29.87,WSW,254,10.0,10.0,84,0.00,,,0.00,weatherlink.com 1.10,2013-07-10 17:10:00,
2013-07-10 13:25:00,79.3,74.0,29.86,WSW,240,3.0,11.0,83,0.00,,,0.00,weatherlink.com 1.10,2013-07-10 17:25:00,
2013-07-10 13:40:00,80.3,74.0,29.85,SSW,198,4.0,13.0,80,0.00,,,0.00,weatherlink.com 1.10,2013-07-10 17:40:00,
2013-07-10 13:55:00,80.6,73.0,29.85,SW,226,6.0,17.0,78,0.00,,,0.00,weatherlink.com 1.10,2013-07-10 17:55:00,
2013-07-10 14:10:00,81.1,74.0,29.84,SSW,194,5.0,13.0,79,0.00,,,0.00,weatherlink.com 1.10,2013-07-10 18:10:00,
2013-07-10 14:26:00,82.5,74.0,29.83,SSW,192,3.0,13.0,76,0.00,,,0.00,weatherlink.com 1.10,2013-07-10 18:26:00,
2013-07-10 14:41:00,84.8,75.0,29.82,SW,235,5.0,11.0,73,0.00,,,0.00,weatherlink.com 1.10,2013-07-10 18:41:00,
2013-07-10 14:56:00,83.8,74.0,29.82,SW,235,4.0,16.0,73,0.00,,,0.00,weatherlink.com 1.10,2013-07-10 18:56:00,
2013-07-10 15:11:00,84.3,75.0,29.81,SSW,209,4.0,10.0,74,0.00,,,0.00,weatherlink.com 1.10,2013-07-10 19:11:00,
2013-07-10 15:26:00,84.3,73.0,29.80,SSW,211,4.0,13.0,68,0.00,,,0.00,weatherlink.com 1.10,2013-07-10 19:26:00,
2013-07-10 15:41:00,84.5,74.0,29.81,South,180,2.0,7.0,71,0.00,,,0.00,weatherlink.com 1.10,2013-07-10 19:41:00,
2013-07-10 15:56:00,83.8,73.0,29.81,SSW,202,7.0,18.0,71,0.00,,,0.00,weatherlink.com 1.10,2013-07-10 19:56:00,
2013-07-10 16:11:00,85.2,74.0,29.80,WNW,303,1.0,8.0,69,0.00,,,0.00,weatherlink.com 1.10,2013-07-10 20:11:00,
2013-07-10 16:26:00,84.6,72.0,29.79,SSW,210,5.0,12.0,66,0.00,,,0.00,weatherlink.com 1.10,2013-07-10 20:26:00,
2013-07-10 16:41:00,84.5,73.0,29.79,SW,236,8.0,12.0,69,0.00,,,0.00,weatherlink.com 1.10,2013-07-10 20:41:00,
2013-07-10 16:56:00,85.2,74.0,29.78,South,180,1.0,6.0,68,0.00,,,0.00,weatherlink.com 1.10,2013-07-10 20:56:00,
2013-07-10 17:11:00,85.6,74.0,29.78,SW,221,2.0,10.0,69,0.00,,,0.00,weatherlink.com 1.10,2013-07-10 21:11:00,
2013-07-10 17:26:00,84.7,73.0,29.78,WSW,242,2.0,11.0,68,0.00,,,0.00,weatherlink.com 1.10,2013-07-10 21:26:00,
2013-07-10 17:41:00,84.1,74.0,29.78,SSW,207,1.0,9.0,71,0.00,,,0.00,weatherlink.com 1.10,2013-07-10 21:41:00,
2013-07-10 17:56:00,84.1,72.0,29.78,SW,219,6.0,8.0,68,0.00,,,0.00,weatherlink.com 1.10,2013-07-10 21:56:00,
2013-07-10 18:11:00,83.8,73.0,29.78,SW,225,2.0,6.0,71,0.00,,,0.00,weatherlink.com 1.10,2013-07-10 22:11:00,
2013-07-10 18:26:00,83.5,72.0,29.78,SW,225,2.0,8.0,69,0.00,,,0.00,weatherlink.com 1.10,2013-07-10 22:26:00,
2013-07-10 18:41:00,83.6,72.0,29.79,SW,231,2.0,5.0,69,0.00,,,0.00,weatherlink.com 1.10,2013-07-10 22:41:00,
2013-07-10 18:56:00,83.2,73.0,29.79,SW,235,5.0,7.0,71,0.00,,,0.00,weatherlink.com 1.10,2013-07-10 22:56:00,
2013-07-10 19:11:00,82.4,73.0,29.79,SSW,209,5.0,7.0,73,0.00,,,0.00,weatherlink.com 1.10,2013-07-10 23:11:00,
2013-07-10 19:26:00,81.8,73.0,29.79,West,259,2.0,5.0,74,0.00,,,0.00,weatherlink.com 1.10,2013-07-10 23:26:00,
2013-07-10 19:41:00,81.2,73.0,29.80,South,190,1.0,2.0,75,0.00,,,0.00,weatherlink.com 1.10,2013-07-10 23:41:00,
2013-07-10 19:56:00,80.9,72.0,29.80,SW,218,0.0,4.0,75,0.00,,,0.00,weatherlink.com 1.10,2013-07-10 23:56:00,
2013-07-10 20:11:00,80.6,73.0,29.79,South,184,2.0,2.0,77,0.00,,,0.00,weatherlink.com 1.10,2013-07-11 00:11:00,
2013-07-10 20:26:00,80.3,73.0,29.79,SW,232,0.0,1.0,79,0.00,,,0.00,weatherlink.com 1.10,2013-07-11 00:26:00,
2013-07-10 20:41:00,79.7,73.0,29.80,WSW,253,0.0,5.0,79,0.00,,,0.00,weatherlink.com 1.10,2013-07-11 00:41:00,
2013-07-10 20:56:00,79.5,73.0,29.80,West,266,0.0,3.0,80,0.00,,,0.00,weatherlink.com 1.10,2013-07-11 00:56:00,
2013-07-10 21:11:00,79.3,73.0,29.81,South,179,1.0,5.0,81,0.00,,,0.00,weatherlink.com 1.10,2013-07-11 01:11:00,
2013-07-10 21:26:00,79.5,73.0,29.80,WNW,298,0.0,5.0,81,0.00,,,0.00,weatherlink.com 1.10,2013-07-11 01:26:00,
2013-07-10 21:41:00,79.6,73.0,29.81,SW,231,0.0,5.0,81,0.00,,,0.00,weatherlink.com 1.10,2013-07-11 01:41:00,
2013-07-10 21:56:00,79.6,74.0,29.81,WSW,252,0.0,4.0,82,0.00,,,0.00,weatherlink.com 1.10,2013-07-11 01:56:00,
2013-07-10 22:11:00,79.6,74.0,29.81,SSW,205,0.0,5.0,82,0.00,,,0.00,weatherlink.com 1.10,2013-07-11 02:11:00,
2013-07-10 22:26:00,79.4,74.0,29.81,WSW,243,0.0,7.0,83,0.00,,,0.00,weatherlink.com 1.10,2013-07-11 02:26:00,
2013-07-10 22:41:00,79.3,74.0,29.80,NW,325,0.0,3.0,83,0.00,,,0.00,weatherlink.com 1.10,2013-07-11 02:41:00,
2013-07-10 22:56:00,78.9,74.0,29.80,WNW,290,0.0,2.0,84,0.00,,,0.00,weatherlink.com 1.10,2013-07-11 02:56:00,
2013-07-10 23:11:00,78.4,74.0,29.79,SW,221,0.0,3.0,85,0.00,,,0.00,weatherlink.com 1.10,2013-07-11 03:11:00,
2013-07-10 23:26:00,78.2,74.0,29.80,WSW,254,0.0,5.0,86,0.00,,,0.00,weatherlink.com 1.10,2013-07-11 03:26:00,
2013-07-10 23:41:00,77.9,74.0,29.79,NW,315,0.0,0.0,87,0.00,,,0.00,weatherlink.com 1.10,2013-07-11 03:41:00,
2013-07-10 23:56:00,77.6,74.0,29.79,WNW,290,0.0,1.0,87,0.00,,,0.00,weatherlink.com 1.10,2013-07-11 03:56:00,